Location: Unspecified
(0.0000°N, 0.0000°E)
Time: 09:39:00
(UTC+00:00)

MIDAS 4 DEB - Pass Details

Date: 15 November 2025
Orbit: 3271 x 3959 km, 95.8° (Epoch: 26 July)

Event Time Altitude Azimuth Distance (km) Brightness Sun altitude
Exits shadow 21:58:11 55° 300° (WNW) 4,131 ? -57.8°
Maximum altitude 22:00:05 56° 282° (WNW) 4,118 ? -58.2°
Drops below altitude 10° 22:19:04 10° 207° (SSW) 7,010 ? -61.8°
Sets 22:23:57 0° 202° (SSW) 8,090 ? -62.7°
